NSS-12

Last updated on Jan. 25, 2020, 4:43 a.m. UTC

1 36032U 09058A   20024.56261789  .00000063  00000-0  00000-0 0  9997
2 36032   0.0408 298.8661 0002644  14.3205  69.6710  1.00271833 37508
UTC
Height (km)
Latitude
Longitude
Inclination
Orbital Period
UTC large
Height (km)
Speed (km/s)
/
Latitude / Longitude
Inclination (degrees)
Orbital Period (minutes)
Azimuth
Elevation
Range (km)
Doppler Factor
iOS Compass Heading
iOS Angle

Next 30 passes for location: Hong Kong

Rise time Rise Azimuth (degrees) Set time Set Azimuth (degrees) Duration Max altitude (degrees)

No matching passes for this satellites